QPF
0.07 0.08 0.07 0.07 0.07 0.07 0.08 0.09 0.08 0.08 0.08 0.07 0.06 0.07 0.06 0.06 0.07 0.08 0.09 0.07 0.07 0.07 0.08 0.09 0.10 0.11 0.14 0.15 0.15 0.14 0.12 0.13 0.15 0.15 0.12 0.09 0.08 0.06 0.06 0.05 0.06 0.06 0.05
0.07 0.07 0.07 0.07 0.07 0.07 0.06 0.06 0.08 0.09 0.09 0.08 0.06 0.05 0.04 0.03 0.05 0.07 0.06 0.06 0.05 0.06 0.07 0.08 0.09 0.10 0.12 0.16 0.18 0.17 0.15 0.14 0.14 0.16 0.17 0.13 0.10 0.08 0.07 0.06 0.06 0.05 0.05
0.06 0.06 0.07 0.06 0.05 0.05 0.05 0.05 0.07 0.09 0.08 0.07 0.06 0.05 0.05 0.05 0.05 0.06 0.06 0.06 0.05 0.08 0.08 0.08 0.09 0.10 0.12 0.15 0.16 0.15 0.15 0.15 0.15 0.15 0.17 0.18 0.15 0.11 0.08 0.07 0.07 0.06 0.05
0.06 0.07 0.06 0.06 0.06 0.04 0.05 0.06 0.07 0.08 0.09 0.09 0.08 0.07 0.06 0.06 0.05 0.05 0.05 0.06 0.07 0.10 0.12 0.10 0.09 0.08 0.10 0.13 0.16 0.18 0.19 0.18 0.18 0.18 0.17 0.16 0.16 0.14 0.09 0.07 0.08 0.07 0.06
0.06 0.06 0.08 0.07 0.06 0.05 0.06 0.06 0.07 0.08 0.08 0.09 0.07 0.08 0.07 0.08 0.07 0.06 0.06 0.08 0.11 0.13 0.12 0.09 0.07 0.07 0.08 0.12 0.15 0.14 0.15 0.19 0.20 0.21 0.19 0.16 0.15 0.15 0.13 0.10 0.09 0.08 0.08
0.05 0.06 0.08 0.07 0.06 0.06 0.06 0.07 0.08 0.09 0.08 0.07 0.06 0.08 0.08 0.09 0.12 0.09 0.05 0.05 0.09 0.11 0.12 0.10 0.10 0.07 0.07 0.08 0.09 0.10 0.11 0.13 0.16 0.19 0.22 0.20 0.16 0.14 0.13 0.11 0.09 0.09 0.09
0.06 0.06 0.07 0.07 0.06 0.06 0.06 0.06 0.07 0.08 0.07 0.07 0.08 0.07 0.06 0.06 0.09 0.08 0.05 0.05 0.07 0.09 0.13 0.12 0.10 0.10 0.09 0.06 0.05 0.05 0.07 0.10 0.11 0.12 0.16 0.19 0.16 0.13 0.11 0.08 0.08 0.08 0.08
0.06 0.06 0.06 0.07 0.07 0.07 0.07 0.07 0.07 0.08 0.07 0.07 0.08 0.08 0.08 0.07 0.06 0.07 0.08 0.07 0.06 0.09 0.14 0.16 0.10 0.10 0.11 0.10 0.06 0.05 0.05 0.06 0.07 0.09 0.10 0.11 0.13 0.14 0.12 0.08 0.07 0.08 0.07
0.05 0.05 0.05 0.06 0.07 0.07 0.07 0.06 0.07 0.08 0.07 0.08 0.09 0.11 0.11 0.10 0.08 0.07 0.09 0.09 0.09 0.10 0.09 0.09 0.09 0.09 0.13 0.12 0.08 0.05 0.03 0.03 0.06 0.06 0.07 0.07 0.08 0.09 0.10 0.09 0.08 0.08 0.07
0.04 0.06 0.07 0.07 0.07 0.07 0.08 0.05 0.06 0.07 0.07 0.07 0.10 0.11 0.11 0.11 0.10 0.08 0.07 0.07 0.08 0.10 0.07 0.07 0.09 0.09 0.11 0.12 0.08 0.04 0.02 0.02 0.04 0.05 0.06 0.06 0.07 0.06 0.05 0.06 0.07 0.07 0.06
0.04 0.04 0.05 0.07 0.07 0.07 0.06 0.06 0.07 0.07 0.07 0.07 0.08 0.10 0.10 0.11 0.11 0.10 0.07 0.07 0.07 0.07 0.06 0.06 0.07 0.09 0.10 0.08 0.06 0.03 0.02 0.02 0.02 0.03 0.04 0.03 0.04 0.04 0.04 0.04 0.05 0.05 0.05
0.05 0.04 0.03 0.04 0.05 0.05 0.05 0.05 0.05 0.05 0.06 0.07 0.07 0.08 0.09 0.09 0.09 0.10 0.08 0.08 0.07 0.07 0.08 0.10 0.11 0.09 0.08 0.07 0.06 0.05 0.03 0.01 0.01 0.01 0.01 0.01 0.01 0.01 0.02 0.03 0.04 0.04 0.05
0.05 0.04 0.04 0.04 0.04 0.04 0.04 0.05 0.05 0.05 0.06 0.06 0.06 0.07 0.08 0.09 0.09 0.09 0.09 0.09 0.09 0.07 0.06 0.07 0.10 0.12 0.10 0.08 0.08 0.05 0.02 0.01 0.01 0.00 0.00 0.00 0.00 0.01 0.01 0.01 0.02 0.02 0.03
0.04 0.03 0.03 0.04 0.04 0.04 0.03 0.04 0.05 0.06 0.05 0.06 0.05 0.05 0.06 0.06 0.07 0.08 0.08 0.07 0.08 0.07 0.06 0.06 0.07 0.08 0.08 0.10 0.09 0.04 0.02 0.02 0.01 0.00 0.00 0.00 0.00 0.00 0.01 0.01 0.00 0.01 0.02
0.05 0.04 0.04 0.04 0.04 0.03 0.03 0.04 0.05 0.05 0.06 0.06 0.06 0.05 0.05 0.06 0.06 0.06 0.07 0.07 0.07 0.08 0.08 0.06 0.07 0.09 0.10 0.12 0.12 0.05 0.02 0.02 0.01 0.01 0.00 0.00 0.01 0.00 0.00 0.01 0.01 0.01 0.01
0.05 0.05 0.04 0.04 0.03 0.02 0.03 0.04 0.04 0.04 0.06 0.06 0.06 0.05 0.05 0.06 0.06 0.06 0.06 0.06 0.07 0.08 0.07 0.06 0.05 0.06 0.07 0.06 0.06 0.04 0.02 0.02 0.02 0.01 0.01 0.01 0.00 0.01 0.01 0.00 0.01 0.01 0.02
0.05 0.05 0.05 0.05 0.03 0.02 0.02 0.04 0.04 0.04 0.04 0.05 0.05 0.06 0.06 0.06 0.07 0.07 0.07 0.07 0.08 0.10 0.09 0.08 0.06 0.04 0.05 0.04 0.05 0.04 0.03 0.02 0.01 0.01 0.01 0.01 0.00 0.01 0.01 0.01 0.02 0.02 0.03
0.05 0.05 0.05 0.03 0.02 0.02 0.02 0.03 0.03 0.03 0.04 0.04 0.05 0.06 0.08 0.07 0.07 0.08 0.07 0.08 0.09 0.09 0.09 0.09 0.08 0.05 0.05 0.04 0.03 0.03 0.03 0.02 0.02 0.01 0.01 0.01 0.00 0.01 0.01 0.02 0.03 0.03 0.03
0.04 0.04 0.03 0.02 0.02 0.02 0.03 0.03 0.03 0.04 0.04 0.05 0.05 0.07 0.08 0.08 0.08 0.08 0.07 0.08 0.09 0.08 0.09 0.08 0.07 0.05 0.04 0.04 0.04 0.03 0.02 0.03 0.03 0.02 0.01 0.01 0.01 0.01 0.01 0.02 0.03 0.03 0.03
0.04 0.03 0.02 0.02 0.02 0.02 0.02 0.03 0.03 0.04 0.03 0.04 0.05 0.07 0.08 0.06 0.07 0.07 0.06 0.07 0.07 0.08 0.09 0.08 0.07 0.05 0.05 0.05 0.05 0.03 0.03 0.05 0.04 0.03 0.02 0.01 0.02 0.03 0.03 0.03 0.03 0.03 0.03
0.04 0.03 0.02 0.01 0.03 0.02 0.01 0.01 0.02 0.02 0.02 0.03 0.04 0.05 0.04 0.04 0.04 0.07 0.06 0.06 0.06 0.07 0.08 0.08 0.07 0.06 0.05 0.05 0.05 0.04 0.05 0.06 0.07 0.05 0.03 0.03 0.02 0.03 0.05 0.05 0.04 0.03 0.03
0.05 0.03 0.01 0.01 0.02 0.01 0.01 0.01 0.01 0.02 0.02 0.04 0.05 0.05 0.03 0.03 0.02 0.04 0.05 0.04 0.04 0.05 0.06 0.07 0.07 0.06 0.06 0.06 0.06 0.05 0.06 0.07 0.08 0.06 0.04 0.03 0.03 0.03 0.04 0.04 0.03 0.02 0.02
0.06 0.04 0.02 0.02 0.02 0.01 0.00 0.00 0.01 0.02 0.03 0.03 0.04 0.04 0.03 0.01 0.02 0.03 0.04 0.02 0.03 0.03 0.03 0.05 0.07 0.08 0.09 0.07 0.07 0.07 0.07 0.07 0.07 0.05 0.04 0.03 0.03 0.03 0.02 0.01 0.01 0.01 0.01
0.08 0.07 0.04 0.02 0.02 0.01 0.01 0.00 0.00 0.01 0.02 0.02 0.02 0.03 0.03 0.02 0.01 0.02 0.03 0.04 0.03 0.03 0.02 0.03 0.07 0.08 0.07 0.06 0.07 0.07 0.05 0.05 0.06 0.05 0.04 0.04 0.04 0.03 0.02 0.01 0.01 0.01 0.01
0.07 0.06 0.04 0.03 0.03 0.02 0.01 0.00 0.00 0.01 0.02 0.02 0.02 0.01 0.02 0.01 0.01 0.00 0.02 0.04 0.05 0.04 0.01 0.01 0.02 0.04 0.05 0.04 0.05 0.05 0.06 0.07 0.07 0.05 0.04 0.03 0.03 0.02 0.02 0.02 0.01 0.02 0.03
0.05 0.04 0.03 0.02 0.02 0.02 0.01 0.00 0.00 0.02 0.03 0.03 0.02 0.01 0.01 0.01 0.00 0.01 0.03 0.04 0.04 0.04 0.02 0.02 0.02 0.03 0.04 0.04 0.04 0.05 0.06 0.05 0.05 0.05 0.04 0.03 0.02 0.02 0.02 0.02 0.01 0.03 0.04
MSLP
1016.48 1016.31 1016.05 1015.76 1015.48 1015.25 1015.09 1015.00 1014.95 1014.91 1014.83 1014.71 1014.52 1014.29 1014.05 1013.83 1013.67 1013.59 1013.61 1013.71 1013.87 1014.06 1014.27 1014.46 1014.63 1014.80 1014.95 1015.13 1015.33 1015.57 1015.86 1016.19 1016.55 1016.93 1017.32 1017.68 1018.03 1018.33 1018.60 1018.84 1019.05 1019.24 1019.43
1016.58 1016.43 1016.21 1015.96 1015.69 1015.46 1015.27 1015.13 1015.01 1014.89 1014.75 1014.57 1014.34 1014.07 1013.80 1013.55 1013.35 1013.23 1013.20 1013.26 1013.39 1013.56 1013.75 1013.94 1014.12 1014.29 1014.44 1014.61 1014.80 1015.02 1015.29 1015.62 1015.98 1016.38 1016.79 1017.19 1017.58 1017.92 1018.23 1018.48 1018.71 1018.91 1019.11
1016.73 1016.62 1016.46 1016.25 1016.03 1015.80 1015.59 1015.40 1015.21 1015.01 1014.79 1014.53 1014.24 1013.91 1013.58 1013.27 1013.02 1012.83 1012.73 1012.72 1012.79 1012.92 1013.08 1013.27 1013.45 1013.62 1013.79 1013.96 1014.15 1014.37 1014.64 1014.95 1015.32 1015.73 1016.17 1016.61 1017.04 1017.43 1017.77 1018.07 1018.32 1018.55 1018.77
1016.93 1016.86 1016.75 1016.60 1016.42 1016.22 1015.99 1015.75 1015.50 1015.21 1014.90 1014.56 1014.19 1013.79 1013.40 1013.02 1012.68 1012.42 1012.23 1012.14 1012.13 1012.19 1012.31 1012.48 1012.66 1012.84 1013.02 1013.21 1013.41 1013.63 1013.89 1014.21 1014.59 1015.01 1015.47 1015.95 1016.41 1016.85 1017.24 1017.57 1017.86 1018.12 1018.37
1017.13 1017.09 1017.03 1016.94 1016.80 1016.62 1016.39 1016.11 1015.79 1015.43 1015.04 1014.62 1014.17 1013.72 1013.26 1012.81 1012.40 1012.05 1011.77 1011.58 1011.48 1011.47 1011.53 1011.66 1011.82 1012.00 1012.20 1012.39 1012.60 1012.83 1013.10 1013.42 1013.80 1014.24 1014.72 1015.22 1015.72 1016.19 1016.62 1016.99 1017.32 1017.60 1017.87
1017.31 1017.28 1017.25 1017.20 1017.11 1016.94 1016.71 1016.40 1016.04 1015.62 1015.17 1014.69 1014.20 1013.69 1013.19 1012.69 1012.22 1011.80 1011.43 1011.15 1010.96 1010.86 1010.85 1010.92 1011.04 1011.21 1011.40 1011.60 1011.81 1012.04 1012.32 1012.63 1013.02 1013.46 1013.95 1014.46 1014.99 1015.48 1015.94 1016.34 1016.69 1016.98 1017.25
1017.43 1017.39 1017.38 1017.36 1017.29 1017.14 1016.92 1016.60 1016.21 1015.77 1015.29 1014.78 1014.27 1013.75 1013.23 1012.71 1012.20 1011.73 1011.30 1010.93 1010.64 1010.45 1010.36 1010.36 1010.43 1010.55 1010.71 1010.89 1011.10 1011.33 1011.59 1011.91 1012.28 1012.72 1013.21 1013.73 1014.26 1014.77 1015.24 1015.64 1015.99 1016.28 1016.54
1017.49 1017.42 1017.40 1017.39 1017.34 1017.21 1017.00 1016.69 1016.31 1015.87 1015.39 1014.89 1014.39 1013.89 1013.39 1012.88 1012.37 1011.86 1011.38 1010.95 1010.58 1010.30 1010.12 1010.03 1010.03 1010.09 1010.20 1010.35 1010.52 1010.73 1010.98 1011.28 1011.64 1012.07 1012.55 1013.06 1013.59 1014.09 1014.55 1014.94 1015.27 1015.54 1015.77
1017.48 1017.38 1017.34 1017.32 1017.28 1017.17 1016.97 1016.69 1016.33 1015.92 1015.47 1015.02 1014.57 1014.11 1013.65 1013.18 1012.69 1012.18 1011.68 1011.20 1010.76 1010.40 1010.13 1009.95 1009.86 1009.84 1009.89 1009.98 1010.11 1010.28 1010.49 1010.77 1011.11 1011.51 1011.98 1012.48 1012.98 1013.47 1013.91 1014.28 1014.58 1014.82 1015.01
1017.44 1017.29 1017.23 1017.19 1017.14 1017.04 1016.87 1016.62 1016.30 1015.93 1015.54 1015.14 1014.75 1014.36 1013.96 1013.54 1013.09 1012.60 1012.09 1011.58 1011.10 1010.67 1010.32 1010.06 1009.88 1009.78 1009.74 1009.77 1009.84 1009.96 1010.13 1010.37 1010.68 1011.06 1011.50 1011.98 1012.46 1012.92 1013.34 1013.68 1013.95 1014.15 1014.31
1017.39 1017.20 1017.10 1017.04 1016.98 1016.88 1016.72 1016.49 1016.21 1015.88 1015.55 1015.21 1014.89 1014.56 1014.22 1013.86 1013.45 1012.99 1012.49 1011.98 1011.47 1011.00 1010.59 1010.26 1010.00 1009.83 1009.72 1009.67 1009.68 1009.74 1009.87 1010.07 1010.34 1010.69 1011.10 1011.55 1012.01 1012.45 1012.84 1013.16 1013.40 1013.58 1013.71
1017.34 1017.13 1016.99 1016.90 1016.81 1016.70 1016.54 1016.32 1016.06 1015.77 1015.47 1015.18 1014.90 1014.63 1014.34 1014.02 1013.65 1013.23 1012.76 1012.26 1011.76 1011.27 1010.84 1010.46 1010.16 1009.93 1009.76 1009.65 1009.60 1009.61 1009.69 1009.84 1010.08 1010.40 1010.78 1011.20 1011.63 1012.05 1012.42 1012.72 1012.96 1013.13 1013.26
1017.32 1017.08 1016.91 1016.79 1016.66 1016.52 1016.34 1016.11 1015.84 1015.56 1015.28 1015.00 1014.75 1014.50 1014.24 1013.95 1013.62 1013.23 1012.80 1012.34 1011.86 1011.40 1010.97 1010.60 1010.28 1010.02 1009.82 1009.68 1009.59 1009.56 1009.59 1009.71 1009.90 1010.18 1010.53 1010.92 1011.33 1011.73 1012.09 1012.39 1012.62 1012.80 1012.94
1017.30 1017.06 1016.86 1016.70 1016.53 1016.34 1016.12 1015.85 1015.56 1015.25 1014.95 1014.67 1014.40 1014.15 1013.89 1013.62 1013.31 1012.96 1012.58 1012.17 1011.75 1011.34 1010.96 1010.62 1010.33 1010.09 1009.89 1009.74 1009.64 1009.58 1009.59 1009.68 1009.84 1010.08 1010.39 1010.75 1011.14 1011.52 1011.87 1012.17 1012.42 1012.62 1012.79
1017.29 1017.04 1016.82 1016.62 1016.40 1016.16 1015.88 1015.57 1015.22 1014.87 1014.53 1014.20 1013.90 1013.62 1013.35 1013.07 1012.78 1012.46 1012.12 1011.78 1011.43 1011.11 1010.81 1010.55 1010.32 1010.14 1009.98 1009.86 1009.77 1009.72 1009.72 1009.79 1009.92 1010.13 1010.41 1010.74 1011.09 1011.46 1011.80 1012.10 1012.37 1012.59 1012.80
1017.24 1017.00 1016.77 1016.54 1016.27 1015.98 1015.64 1015.27 1014.86 1014.45 1014.05 1013.67 1013.32 1012.99 1012.68 1012.38 1012.09 1011.80 1011.52 1011.24 1010.98 1010.75 1010.55 1010.39 1010.26 1010.16 1010.09 1010.02 1009.98 1009.97 1009.99 1010.05 1010.18 1010.37 1010.62 1010.91 1011.24 1011.57 1011.90 1012.20 1012.48 1012.73 1012.98
1017.14 1016.91 1016.68 1016.42 1016.13 1015.79 1015.40 1014.98 1014.52 1014.05 1013.59 1013.15 1012.74 1012.36 1012.01 1011.68 1011.38 1011.11 1010.86 1010.64 1010.46 1010.32 1010.23 1010.18 1010.17 1010.18 1010.20 1010.23 1010.26 1010.31 1010.38 1010.47 1010.60 1010.79 1011.01 1011.28 1011.57 1011.88 1012.18 1012.48 1012.76 1013.03 1013.31
1016.96 1016.76 1016.53 1016.26 1015.95 1015.59 1015.18 1014.72 1014.22 1013.71 1013.20 1012.71 1012.25 1011.82 1011.42 1011.07 1010.75 1010.47 1010.25 1010.07 1009.95 1009.89 1009.89 1009.94 1010.03 1010.15 1010.28 1010.42 1010.55 1010.68 1010.82 1010.97 1011.13 1011.33 1011.55 1011.79 1012.06 1012.33 1012.61 1012.89 1013.16 1013.45 1013.74
1016.71 1016.52 1016.31 1016.06 1015.75 1015.39 1014.97 1014.49 1013.99 1013.45 1012.92 1012.40 1011.90 1011.43 1011.00 1010.61 1010.26 1009.97 1009.74 1009.58 1009.49 1009.47 1009.53 1009.65 1009.83 1010.05 1010.28 1010.52 1010.76 1011.00 1011.22 1011.44 1011.66 1011.88 1012.12 1012.35 1012.60 1012.85 1013.10 1013.35 1013.61 1013.89 1014.20
1016.40 1016.22 1016.03 1015.80 1015.51 1015.17 1014.76 1014.31 1013.81 1013.28 1012.75 1012.22 1011.70 1011.21 1010.75 1010.32 1009.94 1009.62 1009.36 1009.18 1009.08 1009.07 1009.15 1009.31 1009.54 1009.83 1010.14 1010.48 1010.82 1011.15 1011.47 1011.78 1012.06 1012.34 1012.59 1012.84 1013.07 1013.30 1013.53 1013.76 1014.01 1014.28 1014.59
1016.03 1015.87 1015.70 1015.49 1015.23 1014.92 1014.55 1014.12 1013.66 1013.16 1012.65 1012.13 1011.62 1011.12 1010.64 1010.18 1009.77 1009.40 1009.10 1008.88 1008.74 1008.70 1008.76 1008.91 1009.16 1009.47 1009.84 1010.24 1010.66 1011.09 1011.50 1011.88 1012.24 1012.57 1012.86 1013.13 1013.36 1013.58 1013.79 1014.01 1014.24 1014.51 1014.82
1015.65 1015.49 1015.33 1015.14 1014.91 1014.63 1014.30 1013.93 1013.50 1013.05 1012.58 1012.09 1011.60 1011.10 1010.62 1010.15 1009.70 1009.29 1008.93 1008.65 1008.45 1008.35 1008.36 1008.48 1008.69 1009.01 1009.39 1009.83 1010.30 1010.78 1011.26 1011.72 1012.14 1012.52 1012.85 1013.13 1013.38 1013.59 1013.80 1014.00 1014.23 1014.49 1014.81
1015.27 1015.11 1014.95 1014.77 1014.56 1014.32 1014.02 1013.69 1013.32 1012.91 1012.49 1012.04 1011.58 1011.11 1010.63 1010.15 1009.68 1009.24 1008.83 1008.49 1008.23 1008.06 1008.00 1008.05 1008.22 1008.50 1008.87 1009.31 1009.79 1010.30 1010.82 1011.31 1011.77 1012.18 1012.54 1012.84 1013.10 1013.31 1013.51 1013.72 1013.94 1014.21 1014.53
1014.93 1014.75 1014.58 1014.40 1014.20 1013.97 1013.70 1013.41 1013.08 1012.73 1012.35 1011.95 1011.53 1011.10 1010.64 1010.17 1009.70 1009.24 1008.80 1008.41 1008.10 1007.87 1007.74 1007.74 1007.84 1008.07 1008.39 1008.79 1009.26 1009.76 1010.27 1010.77 1011.23 1011.65 1012.00 1012.31 1012.56 1012.78 1012.98 1013.18 1013.41 1013.68 1014.01
1014.65 1014.44 1014.25 1014.05 1013.84 1013.62 1013.37 1013.10 1012.81 1012.50 1012.17 1011.82 1011.44 1011.05 1010.62 1010.18 1009.73 1009.27 1008.83 1008.43 1008.09 1007.82 1007.65 1007.59 1007.64 1007.80 1008.07 1008.42 1008.83 1009.28 1009.75 1010.21 1010.64 1011.03 1011.37 1011.65 1011.89 1012.10 1012.29 1012.49 1012.73 1013.00 1013.33
1014.43 1014.18 1013.96 1013.74 1013.52 1013.29 1013.05 1012.80 1012.54 1012.26 1011.97 1011.66 1011.32 1010.97 1010.59 1010.19 1009.77 1009.34 1008.93 1008.54 1008.20 1007.93 1007.75 1007.66 1007.67 1007.78 1007.99 1008.27 1008.61 1008.99 1009.39 1009.78 1010.14 1010.48 1010.76 1011.01 1011.22 1011.41 1011.59 1011.78 1012.01 1012.28 1012.61
Thickness
5717 5716 5714 5713 5712 5711 5711 5710 5710 5710 5710 5710 5710 5710 5711 5712 5711 5711 5709 5709 5709 5709 5708 5708 5708 5708 5708 5708 5707 5707 5707 5706 5706 5705 5704 5703 5702 5701 5701 5701 5700 5700 5700
5712 5711 5710 5708 5707 5706 5706 5705 5705 5705 5705 5705 5705 5705 5706 5706 5706 5705 5704 5704 5704 5704 5703 5704 5704 5704 5704 5705 5704 5705 5704 5704 5704 5703 5701 5701 5700 5700 5699 5699 5698 5698 5698
5706 5705 5705 5703 5702 5701 5701 5700 5700 5699 5699 5700 5699 5699 5700 5700 5700 5698 5698 5698 5698 5698 5698 5699 5699 5699 5701 5701 5701 5701 5701 5701 5701 5700 5699 5698 5697 5697 5697 5697 5696 5696 5696
5700 5699 5698 5696 5695 5695 5695 5694 5693 5691 5691 5691 5691 5691 5693 5693 5693 5693 5692 5692 5692 5692 5692 5692 5693 5694 5696 5696 5697 5697 5698 5698 5698 5697 5696 5695 5694 5694 5694 5694 5694 5693 5693
5694 5692 5691 5689 5689 5688 5688 5686 5685 5684 5682 5682 5682 5684 5685 5685 5685 5685 5685 5685 5686 5686 5685 5685 5687 5688 5690 5690 5692 5692 5693 5694 5694 5694 5693 5693 5692 5692 5692 5692 5692 5691 5691
5688 5685 5684 5682 5681 5680 5679 5677 5675 5676 5675 5675 5675 5676 5677 5678 5678 5678 5678 5678 5678 5679 5679 5679 5680 5682 5683 5684 5686 5687 5688 5688 5689 5689 5689 5689 5689 5689 5689 5689 5689 5688 5688
5680 5679 5677 5675 5674 5672 5670 5669 5667 5666 5666 5667 5665 5665 5668 5671 5671 5671 5670 5670 5669 5671 5671 5671 5672 5674 5675 5676 5678 5679 5681 5681 5683 5683 5684 5684 5685 5685 5685 5685 5685 5685 5685
5673 5672 5669 5667 5666 5664 5663 5662 5659 5657 5657 5659 5655 5652 5653 5656 5660 5663 5662 5662 5663 5663 5663 5664 5665 5666 5668 5669 5670 5671 5672 5674 5675 5677 5678 5679 5680 5680 5681 5682 5682 5682 5681
5667 5664 5661 5659 5658 5656 5655 5654 5652 5650 5648 5650 5650 5645 5642 5642 5645 5650 5652 5654 5654 5654 5655 5656 5657 5658 5660 5661 5662 5663 5664 5666 5668 5670 5671 5672 5673 5675 5676 5677 5677 5677 5677
5660 5657 5654 5651 5650 5648 5647 5646 5645 5643 5642 5640 5642 5642 5641 5639 5635 5636 5640 5643 5644 5645 5646 5648 5649 5650 5652 5652 5654 5656 5657 5659 5661 5663 5665 5666 5667 5668 5670 5671 5672 5673 5673
5653 5650 5647 5644 5642 5640 5639 5638 5637 5636 5635 5634 5633 5633 5633 5633 5633 5629 5628 5631 5633 5635 5637 5639 5641 5643 5644 5645 5646 5648 5651 5652 5654 5656 5658 5659 5661 5662 5664 5665 5667 5668 5668
5646 5643 5640 5637 5635 5633 5631 5630 5630 5629 5628 5628 5627 5626 5625 5625 5624 5624 5622 5622 5623 5626 5629 5631 5634 5636 5637 5638 5640 5641 5644 5645 5647 5649 5651 5653 5655 5656 5658 5660 5661 5663 5664
5639 5636 5633 5630 5628 5627 5626 5625 5624 5623 5623 5621 5621 5621 5621 5621 5621 5620 5617 5616 5617 5619 5622 5624 5628 5630 5631 5631 5632 5634 5637 5639 5641 5642 5644 5646 5648 5650 5652 5654 5656 5657 5658
5633 5631 5628 5625 5623 5622 5621 5620 5619 5618 5618 5616 5617 5617 5617 5617 5617 5615 5614 5612 5610 5612 5614 5617 5621 5623 5624 5624 5625 5628 5630 5633 5634 5636 5638 5640 5642 5644 5646 5648 5650 5651 5652
5629 5626 5623 5620 5618 5617 5616 5615 5614 5613 5613 5612 5612 5613 5613 5613 5613 5612 5611 5610 5607 5605 5607 5611 5613 5616 5617 5618 5619 5621 5624 5626 5629 5631 5633 5635 5636 5638 5640 5642 5644 5645 5646
5623 5620 5618 5616 5614 5612 5611 5610 5610 5610 5609 5609 5608 5608 5608 5608 5609 5608 5607 5607 5606 5604 5604 5606 5608 5610 5611 5613 5614 5615 5617 5620 5622 5625 5627 5629 5631 5633 5634 5636 5637 5638 5640
5618 5615 5613 5611 5609 5608 5607 5606 5606 5605 5605 5604 5605 5605 5604 5604 5604 5604 5604 5603 5603 5603 5601 5602 5604 5605 5606 5608 5609 5610 5612 5614 5617 5619 5621 5623 5625 5627 5628 5629 5630 5632 5633
5613 5611 5609 5607 5606 5604 5603 5602 5602 5601 5600 5600 5600 5600 5600 5600 5599 5599 5599 5598 5599 5599 5598 5597 5598 5600 5601 5603 5605 5606 5608 5610 5612 5614 5616 5617 5619 5621 5622 5623 5624 5625 5626
5609 5607 5606 5603 5602 5601 5599 5598 5597 5597 5596 5596 5596 5596 5596 5596 5595 5595 5595 5595 5596 5597 5596 5594 5594 5596 5598 5599 5600 5602 5605 5606 5608 5609 5611 5612 5614 5615 5616 5617 5618 5618 5619
5605 5604 5602 5600 5599 5598 5596 5595 5594 5592 5592 5592 5593 5593 5593 5593 5592 5592 5592 5592 5592 5592 5592 5591 5591 5592 5593 5595 5596 5597 5599 5601 5604 5606 5607 5608 5609 5610 5611 5612 5612 5612 5613
5603 5602 5599 5598 5596 5594 5592 5590 5589 5589 5588 5589 5590 5590 5590 5590 5590 5589 5590 5589 5589 5588 5588 5588 5589 5589 5590 5590 5592 5594 5596 5598 5600 5603 5603 5604 5605 5605 5606 5607 5607 5607 5607
5600 5598 5596 5595 5593 5592 5588 5585 5584 5584 5585 5586 5586 5587 5588 5589 5588 5587 5587 5587 5586 5586 5586 5586 5587 5586 5587 5589 5590 5592 5593 5594 5596 5600 5601 5601 5604 5603 5604 5605 5605 5605 5604
5596 5594 5593 5592 5590 5588 5586 5584 5582 5581 5582 5583 5584 5585 5587 5588 5587 5587 5587 5587 5587 5586 5586 5585 5585 5586 5587 5587 5588 5590 5591 5592 5594 5598 5598 5598 5601 5601 5603 5604 5603 5603 5601
5594 5592 5591 5590 5589 5587 5584 5582 5581 5581 5582 5583 5584 5585 5585 5585 5585 5584 5585 5586 5587 5587 5587 5586 5586 5587 5588 5588 5588 5589 5590 5592 5595 5596 5597 5595 5597 5599 5602 5601 5601 5600 5599
5593 5592 5591 5590 5589 5586 5584 5582 5579 5580 5581 5583 5584 5585 5585 5584 5583 5583 5584 5584 5585 5586 5587 5587 5587 5587 5588 5588 5587 5588 5589 5589 5590 5592 5595 5594 5596 5597 5598 5598 5598 5597 5597
5594 5593 5592 5591 5589 5587 5584 5582 5580 5580 5581 5582 5583 5584 5584 5583 5582 5581 5581 5582 5583 5585 5586 5587 5587 5588 5589 5589 5588 5588 5588 5588 5588 5589 5593 5593 5593 5593 5593 5596 5596 5595 5594